Powrót do katalogu

FENGYUN 1C DEB

AktywnySSO
NORAD 33664·DEBRIS·🇨🇳 China

Wystrzelony May 10, 1999 z Taiyuan Satellite Launch Center

Loading…

Następne Przeloty (najbliższe 24 godziny)

TLE

ŚwieżeSource: Space-Track

Epoka: Sep 11, 2026, 15:51 UTC

1 33664U 99025DEZ 26254.66100896  .00000220  00000-0  14661-3 0  9997
2 33664  98.7395  37.6177 0162825 354.1485   5.7777 14.04303500945696

Śledź FENGYUN 1C DEB w czasie rzeczywistym z AllMySat

Download on the App Store